Regional Weather Roundup
Issued by NWS Sioux Falls, SD

Home | Current Version | Previous Version | Graphics & Text | Print | Product List | Glossary On
Versions: 1 2 3 4 5 6 7 8 9 10 11 12 13 14 15 16 17 18 19 20 21 22 23 24 25 26 27 28 29 30 31 32 33 34 35 36 37 38 39 40 41 42 43 44 45 46 47 48 49 50
000
ASUS43 KFSD 122002
RWRFSD

WEATHER ROUNDUP FOR SE SOUTH DAKOTA/SW MINNESOTA/NW IOWA
NATIONAL WEATHER SERVICE SIOUX FALLS SD
200 PM CST TUE DEC 12 2017

NOTE: "FAIR" INDICATES FEW OR NO CLOUDS BELOW 12,000 FEET WITH NO
SIGNIFICANT WEATHER AND OR OBSTRUCTIONS TO VISIBILITY.


SDZ038>040-050-052>070-122100-
SOUTHEAST SOUTH DAKOTA

CITY           SKY/WX    TMP DP  RH WIND       PRES   REMARKS
BROOKINGS      CLOUDY    38  28  67 SW13      29.98F
CHAMBERLAIN    SUNNY     52  24  33 SW12G17   29.99F
HURON          SUNNY     46  28  49 W15       29.97F
MADISON        FAIR      37  32  81 W13G18    29.98F
MITCHELL       SUNNY     45  30  55 SW10      30.01F
SIOUX FALLS    CLOUDY    40  31  70 SW10      30.02F
WINNER         FAIR      58  18  21 W12       30.00F
YANKTON        CLOUDY    44  28  53 SW10      30.05F
$$

MNZ071-072-080-081-089-090-097-098-122100-
SOUTHWEST MINNESOTA

CITY           SKY/WX    TMP DP  RH WIND       PRES   REMARKS
FAIRMONT       CLOUDY    31  23  72 W14       30.03F WCI  21
JACKSON        SUNNY     32  25  74 MISG      30.02F
LUVERNE        SUNNY     34  27  75 SW13      30.03F WCI  25
MARSHALL       SUNNY     40  28  62 W20G26    29.97F
MONTEVIDEO     MOSUNNY   39  28  65 W7        29.95F
PIPESTONE      MOSUNNY   36  27  69 W15       29.98F
REDWOOD FALLS  PTSUNNY   35  25  66 SW13      29.98F WCI  26
TRACY          SUNNY     38  30  73 W17       29.98F
WINDOM           N/A     36  19  51 SW10      30.01F
WORTHINGTON    CLOUDY    33  25  72 SW16      30.02F WCI  23
$$

IAZ001>003-012>014-020>022-031-032-NEZ013-014-SDZ071-122100-
NORTHWEST IOWA

CITY           SKY/WX    TMP DP  RH WIND       PRES   REMARKS
CHEROKEE       CLOUDY    36  24  64 W10G18    30.07F
DENISON        CLOUDY    36  21  55 SW10      30.12F
ESTHERVILLE    CLOUDY    32  23  69 SW16      30.03F WCI  21
LE MARS        CLOUDY    37  27  65 S12       30.07F
ORANGE CITY    CLOUDY    37  28  70 SW12      30.05F
SHELDON        CLOUDY    36  27  69 SW12G18   30.03F
SIOUX CITY     CLOUDY    40  27  59 S8        30.10F
SPENCER        CLOUDY    35  23  61 W15       30.05F WCI  25
STORM LAKE     CLOUDY    36  23  60 W15       30.06F
$$

ABBREVIATIONS USED IN REMARKS
   TC - TEMPERATURE IN CELSIUS
  WCI - WIND CHILL INDEX
   HX - HEAT INDEX
  VSB - VISIBILITY




USA.gov is the U.S. government's official web portal to all federal, state and local government web resources and services.